Location: Champseau
(45.8333°N, 1.7667°E)
Time: 05:01:54
(UTC+00:00)

Meteor 2-21 - Pass Details

Date: 18 April 2021
Orbit: 933 x 967 km, 82.5° (Epoch: 10 May)

Event Time Altitude Azimuth Distance (km) Brightness Sun altitude
Rises 20:53:58 0° 350° (N) 3,601 8.3 -20.4°
Reaches altitude 10° 20:56:27 10° 350° (N) 2,653 7.5 -20.7°
Maximum altitude 21:02:31 84° 263° (W) 947 4.4 -21.5°
Enters shadow 21:05:28 33° 178° (S) 1,535 5.1 -21.8°
